This demonstration page uses our WeatherBlox Daily Observations layout. Learn more.

Left ArrowRight Arrow

34.74481, -87.66753

Hourly Observations for October 24, 2019

Temp ( °F °C ) Dew Point ( °F °C ) Humidity (%) Winds ( mph kmh ) Pressure ( in mb ) Visibility ( mi km ) Precip ( " mm )
12:53 am 00:53 Clear 45 7.2 42 5.6 90 90 Calm 30.18 1022 10 16 0.00 0.00
1:53 am 01:53 Clear 44 6.7 41 5 89 89 Calm 30.19 1022 10 16 0.00 0.00
2:53 am 02:53 Clear 43 6.1 39 3.9 86 86 Calm 30.19 1022 10 16 0.00 0.00
3:53 am 03:53 Clear 43 6.1 40 4.4 89 89 Calm 30.19 1022 10 16 0.00 0.00
4:53 am 04:53 Clear 42 5.6 39 3.9 89 89 Calm 30.20 1023 10 16 0.00 0.00
5:53 am 05:53 Clear 41 5 39 3.9 93 93 Calm 30.21 1023 10 16 0.00 0.00
6:50 am 06:50 Partly Cloudy 41 5 37 3 87 87 Calm 30.24 1024 10 16 0.00 0.00
6:53 am 06:53 Partly Cloudy 41 5 38 3.3 89 89 Calm 30.22 1024 10 16 0.00 0.00
7:53 am 07:53 Sunny 45 7.2 42 5.6 90 90 Calm 30.24 1024 10 16 0.00 0.00
8:53 am 08:53 Sunny 53 11.7 46 7.8 77 77 E 5 7 30.26 1025 10 16 0.00 0.00
9:53 am 09:53 Sunny 59 15 44 6.7 58 58 ESE 6 9 30.26 1025 10 16 0.00 0.00
10:53 am 10:53 Sunny 66 18.9 45 7.2 47 47 SE 7 11 30.24 1024 10 16 0.00 0.00
11:53 am 11:53 Sunny 70 21.1 41 5 35 35 ESE 8 13 30.22 1023 10 16 0.00 0.00
12:53 pm 12:53 Sunny 72 22.2 38 3.3 29 29 E 9 15 30.20 1023 10 16 0.00 0.00
1:53 pm 13:53 Sunny 73 22.8 36 2.2 26 26 ESE 7 11 30.16 1022 10 16 0.00 0.00
2:53 pm 14:53 Sunny 74 23.3 39 3.9 28 28 E 9 15 30.16 1021 10 16 0.00 0.00
3:53 pm 15:53 Sunny 73 22.8 39 3.9 29 29 ENE 10 17 30.14 1021 10 16 0.00 0.00
4:53 pm 16:53 Sunny 72 22.2 39 3.9 30 30 E 9 15 30.14 1021 10 16 0.00 0.00
5:53 pm 17:53 Sunny 68 20 41 5 38 38 ENE 6 9 30.16 1021 10 16 0.00 0.00
6:53 pm 18:53 Clear 62 16.7 43 6.1 50 50 ENE 6 9 30.17 1022 10 16 0.00 0.00
7:53 pm 19:53 Clear 62 16.7 43 6.1 50 50 ENE 5 7 30.18 1022 10 16 0.00 0.00
8:53 pm 20:53 Clear 54 12.2 46 7.8 75 75 E 3 6 30.19 1022 10 16 0.00 0.00
9:53 pm 21:53 Clear 56 13.3 47 8.3 72 72 Calm 30.20 1023 10 16 0.00 0.00
10:53 pm 22:53 Clear 54 12.2 48 8.9 80 80 Calm 30.19 1023 10 16 0.00 0.00
11:53 pm 23:53 Clear 53 11.7 48 8.9 83 83 Calm 30.19 1023 10 16 0.00 0.00

Powered by AerisWeather